User: anonymous   Login
Location: Esp�n
(42.4593°N, 0.2047°W)
Time: 16:11:12
(UTC+00:00)
Language:

CZ-2D R/B - Orbit

View from above orbital plane
View from above orbital plane
View from above satellite
View from above satellite

Ground track
Ground track

The orbit data is extracted from the following two-line orbital elements,

1 37932U 11068C   21173.79818112 -.00000018  00000-0  11347-4 0  9991
2 37932  98.6906 109.9006 0038093 112.5038 302.0250 14.22074206497686
Epoch (UTC): 22 June 2021 19:09:22
Eccentricity: 0.0038093
inclination: 98.6906°
perigee height: 791 km
apogee height: 846 km
right ascension of ascending node: 109.9006°
argument of perigee: 112.5038°
revolutions per day: 14.22074206
mean anomaly at epoch: 302.0250°
orbit number at epoch: 49768

The dashed part of the orbit path shows where the satellite is in the earth's shadow,  

DLR